This is the latest recevied weather packets stored in our database for station/object KK4MOR. If no packets are shown the sender has not sent any weather packets the latest 10 day(s).
| Time | Temp. | Humidity | Pressure | Rain* | Wind** | Luminosity | Snow |
|---|---|---|---|---|---|---|---|
| 1777571134 | 16.67° C | 46% | 1013.5 hPa | 0 mm | - | - | - |
| 1777570229 | 15.56° C | 49% | 1013.6 hPa | 0 mm | - | - | - |
| 1777569332 | 15.56° C | 48% | 1013.3 hPa | 0 mm | - | - | - |
| 1777568425 | 15.56° C | 49% | 1013.4 hPa | 0 mm | - | - | - |
| 1777567525 | 15° C | 51% | 1013.5 hPa | 0 mm | - | - | - |
| 1777566622 | 15° C | 51% | 1013.4 hPa | 0 mm | - | - | - |
| 1777565741 | 15° C | 50% | 1013.5 hPa | 0 mm | - | - | - |
| 1777564821 | 15° C | 53% | 1013.7 hPa | 0 mm | - | - | - |
| 1777563918 | 14.44° C | 52% | 1013.9 hPa | 0 mm | - | - | - |
| 1777563017 | 14.44° C | 50% | 1014 hPa | 0 mm | - | - | - |
| 1777562116 | 14.44° C | 54% | 1013.9 hPa | 0 mm | - | - | - |
| 1777561214 | 13.89° C | 50% | 1013.7 hPa | 0 mm | - | - | - |
| 1777560314 | 13.89° C | 54% | 1013.6 hPa | 0 mm | - | - | - |
| 1777559411 | 13.33° C | 54% | 1013.6 hPa | 0 mm | - | - | - |
| 1777558511 | 12.78° C | 54% | 1013.6 hPa | 0 mm | - | - | - |
| 1777557609 | 12.78° C | 59% | 1013.7 hPa | 0 mm | - | - | - |
| 1777556709 | 12.22° C | 60% | 1013.6 hPa | 0 mm | - | - | - |
| 1777555806 | 12.22° C | 62% | 1013.5 hPa | 0 mm | - | - | - |
| 1777554907 | 11.67° C | 65% | 1013.7 hPa | 0 mm | - | - | - |
| 1777554004 | 11.67° C | 72% | 1013.5 hPa | 0 mm | - | - | - |
| 1777553102 | 11.11° C | 78% | 1013.4 hPa | 0 mm | - | - | - |
| 1777552259 | 10.56° C | 78% | 1013.1 hPa | 0 mm | - | - | - |
| 1777551359 | 10.56° C | 80% | 1012.8 hPa | 0 mm | - | - | - |
| 1777550455 | 10° C | 82% | 1012.6 hPa | 0 mm | - | - | - |
| 1777549560 | 10° C | 83% | 1012.3 hPa | 0 mm | - | - | - |
* Rain latest hour (hover to see other rain measurements)
** Current wind speed in m/s (hover to see current wind gust speed)